sat.trackr.live / text

‹ back to catalog

MONITOR-3 (RS58S)

NORAD 57180 · 2023-091Q

PAYLOAD ACTIVE UNKNOWN

§ Identity

Operator
Country
CIS
Launch date
2023-06-27
Launch site
VOSTO
Launch vehicle
Mass (kg)
RCS (m²)

Purposes: comms

External: N2YO · Heavens-Above · Gunter

§ Orbital elements

Epoch: 2026-05-25T04:56:52.300896Z

Period
94.28 min
Inclination
97.5096°
Eccentricity
0.0012205
Mean motion
15.27300669 rev/d
Perigee alt
475.5 km
Apogee alt
492.3 km
Semi-major
6,862.0 km
B*
3.9469e-4
RAAN
208.4912°
Arg perigee
173.3890°
Mean anomaly
186.7512°
Rev number
16,078

§ Raw data

MONITOR-3 (RS58S)1 57180U 23091Q   26145.20616089  .00010506  00000+0  39469-3 0  99912 57180  97.5096 208.4912 0012205 173.3890 186.7512 15.27300669160787

JSON: /api/v1/satellites/57180 · /tle

For live sub-satellite position, see the globe view (requires WebGL).

§ Visibility from observer

Set your observer location to see the next 7 days of passes ≥ 10°. The values pass through the URL so the page stays shareable.

No JS? Fill the form by hand. The geolocation button needs JavaScript.

§ Radio — SatNOGS DB

ModeDescriptionDownlinkUplink
GMSK USP Mode U - GMSK 4k8 (USP FEC) TLM 435.290 MHz
GMSK USP Mode U - GMSK 9k6 (USP FEC) 435.290 MHz
SSTV Mode U - Robot 36 SSTV 435.290 MHz

3 transmitters · refreshed weekly from db.satnogs.org